IW0RQH-13 Weather Reports


time (UTC)temp
C
wind
direction
speed
KPH
gust
KPH
rain 1hr
cm
rain 24hr
cm
rain mn
cm
humidity
%
barometer
mb
20260503215403 15 91 4.8 8.0 0.00 0.00 0.00 65 1018.3
20260503214503 15 66 4.8 8.0 0.00 0.00 0.00 64 1018.4
20260503213608 15 56 4.8 9.7 0.00 0.00 0.00 64 1018.3
20260503212703 16 102 4.8 8.0 0.00 0.00 0.00 62 1018.1
20260503211824 16 153 6.4 8.0 0.00 0.00 0.00 62 1018.3
20260503210905 16 134 6.4 9.7 0.00 0.00 0.00 63 1017.8
20260503210024 16 85 4.8 9.7 0.00 0.00 0.00 62 1017.9
20260503205403 16 90 3.2 6.4 0.00 0.00 0.00 60 1018.0
20260503204503 17 134 3.2 9.7 0.00 0.00 0.00 60 1017.8
20260503203603 17 187 4.8 9.7 0.00 0.00 0.00 61 1017.8
20260503202703 17 184 6.4 8.0 0.00 0.00 0.00 60 1017.7
20260503201803 17 171 4.8 8.0 0.00 0.00 0.00 60 1017.4
20260503200903 17 137 4.8 8.0 0.00 0.00 0.00 59 1017.6
20260503200003 17 150 6.4 9.7 0.00 0.00 0.00 59 1017.5
20260503195445 17 144 4.8 9.7 0.00 0.00 0.00 59 1017.5
20260503194503 17 152 3.2 6.4 0.00 0.00 0.00 56 1017.3
20260503193603 18 166 4.8 8.0 0.00 0.00 0.00 58 1017.3
20260503192703 18 124 4.8 6.4 0.00 0.00 0.00 56 1016.9
20260503191803 18 146 4.8 8.0 0.00 0.00 0.00 55 1017.1
20260503190905 18 172 4.8 8.0 0.00 0.00 0.00 55 1016.7
20260503190004 18 209 3.2 6.4 0.00 0.00 0.00 54 1016.8
20260503185404 19 189 3.2 8.0 0.00 0.00 0.00 51 1016.4
20260503184524 20 125 3.2 6.4 0.00 0.00 0.00 47 1016.3
20260503183603 20 94 1.6 3.2 0.00 0.00 0.00 44 1016.6
20260503182703 20 82 1.6 4.8 0.00 0.00 0.00 43 1016.2
20260503181803 20 77 1.6 4.8 0.00 0.00 0.00 43 1016.3
20260503180903 21 266 0.0 3.2 0.00 0.00 0.00 42 1016.2
20260503180005 21 267 1.6 4.8 0.00 0.00 0.00 40 1016.2
20260503175404 21 251 1.6 4.8 0.00 0.00 0.00 40 1016.1
20260503174503 21 246 1.6 4.8 0.00 0.00 0.00 39 1016.1
20260503173603 22 237 1.6 4.8 0.00 0.00 0.00 38 1015.8
20260503172705 22 214 3.2 4.8 0.00 0.00 0.00 38 1015.8
20260503171824 23 220 1.6 4.8 0.00 0.00 0.00 36 1016.1
20260503170924 23 266 1.6 4.8 0.00 0.00 0.00 36 1016.0
20260503150903 23 304 6.4 17.7 0.00 0.00 0.00 33 1016.7
20260503130903 22 313 9.7 22.5 0.00 0.00 0.00 32 1017.6
20260503080903 16 126 3.2 8.0 0.00 0.00 0.00 49 1020.4
20260503072703 14 158 4.8 12.9 0.00 0.00 0.00 55 1020.6
20260503071803 13 166 4.8 9.7 0.00 0.00 0.00 55 1020.9
20260503070903 13 138 8.0 11.3 0.00 0.00 0.00 56 1020.8
20260503054503 8 146 11.3 19.3 0.00 0.00 0.00 74 1020.8
20260503053603 8 145 11.3 17.7 0.00 0.00 0.00 75 1020.7
20260503052724 8 141 9.7 14.5 0.00 0.00 0.00 73 1020.7
20260503051803 9 133 8.0 14.5 0.00 0.00 0.00 70 1020.6
20260503050924 9 104 8.0 11.3 0.00 0.00 0.00 69 1020.8
20260503050003 8 89 6.4 9.7 0.00 0.00 0.00 71 1020.4
20260503045404 8 109 6.4 11.3 0.00 0.00 0.00 71 1020.6
20260503044524 7 96 6.4 9.7 0.00 0.00 0.00 75 1020.8
20260503043604 7 87 8.0 12.9 0.00 0.00 0.00 74 1020.9
20260503042703 7 104 6.4 9.7 0.00 0.00 0.00 76 1020.5
20260503041803 7 77 6.4 8.0 0.00 0.00 0.00 77 1020.6
20260503040903 7 98 4.8 8.0 0.00 0.00 0.00 78 1020.5
20260503040003 7 49 3.2 9.7 0.00 0.00 0.00 79 1020.3
20260503035403 7 58 3.2 6.4 0.00 0.00 0.00 79 1020.5
20260503034503 7 45 4.8 12.9 0.00 0.00 0.00 76 1020.3
20260503033603 8 52 11.3 19.3 0.00 0.00 0.00 72 1020.2
20260503032703 8 60 6.4 9.7 0.00 0.00 0.00 72 1020.1
20260503031803 8 62 6.4 14.5 0.00 0.00 0.00 72 1020.1
20260503030903 8 68 6.4 12.9 0.00 0.00 0.00 72 1020.1
20260503030003 8 75 8.0 20.9 0.00 0.00 0.00 71 1020.1
20260503025403 8 95 6.4 16.1 0.00 0.00 0.00 70 1020.1
20260503024503 8 127 4.8 9.7 0.00 0.00 0.00 71 1020.2
20260503023624 8 54 3.2 6.4 0.00 0.00 0.00 70 1020.1
20260503022704 8 62 4.8 9.7 0.00 0.00 0.00 69 1020.2
20260503021803 8 88 6.4 12.9 0.00 0.00 0.00 69 1020.2
20260503020903 9 60 11.3 20.9 0.00 0.00 0.00 69 1020.2
20260503020003 9 66 11.3 22.5 0.00 0.00 0.00 68 1020.1
20260503015403 9 68 11.3 17.7 0.00 0.00 0.00 68 1020.3
20260503014503 9 60 11.3 19.3 0.00 0.00 0.00 68 1020.3
20260503013603 10 54 9.7 20.9 0.00 0.00 0.00 66 1020.3
20260503012704 10 79 9.7 14.5 0.00 0.00 0.00 65 1020.2
20260503011803 10 78 11.3 16.1 0.00 0.00 0.00 64 1020.4
20260503010905 10 89 9.7 14.5 0.00 0.00 0.00 63 1020.2
20260503010003 10 96 9.7 14.5 0.00 0.00 0.00 63 1020.4
20260503005403 10 99 9.7 16.1 0.00 0.00 0.00 63 1020.3
20260503004503 10 86 11.3 17.7 0.00 0.00 0.00 63 1020.5
20260503003603 10 77 11.3 17.7 0.00 0.00 0.00 64 1020.5
20260503002704 10 72 12.9 17.7 0.00 0.00 0.00 64 1020.5
20260503001814 10 72 12.9 19.3 0.00 0.00 0.00 63 1020.6
20260503000903 10 76 11.3 17.7 0.00 0.00 0.00 62 1020.5
20260503000003 10 75 12.9 19.3 0.00 0.00 0.00 62 1020.7
20260502235405 10 76 12.9 17.7 0.00 0.00 0.00 62 1020.6
20260502234503 11 79 11.3 17.7 0.00 0.00 0.00 62 1020.7
20260502233603 11 77 11.3 17.7 0.00 0.00 0.00 62 1020.8
20260502232703 11 84 11.3 16.1 0.00 0.00 0.00 61 1020.9
20260502231806 11 87 8.0 12.9 0.00 0.00 0.00 62 1021.1
20260502230903 11 73 9.7 14.5 0.00 0.00 0.00 62 1021.1
20260502230003 11 70 9.7 17.7 0.00 0.00 0.00 61 1021.3
20260502225403 11 73 12.9 20.9 0.00 0.00 0.00 61 1020.9
20260502224524 11 71 12.9 20.9 0.00 0.00 0.00 59 1020.9
20260502223604 12 75 9.7 16.1 0.00 0.00 0.00 57 1021.2
20260502222706 12 73 9.7 14.5 0.00 0.00 0.00 58 1020.9
20260502221803 12 80 11.3 16.1 0.00 0.00 0.00 57 1020.7
20260502220903 12 76 12.9 19.3 0.00 0.00 0.00 56 1020.8
20260502220025 12 85 12.9 19.3 0.00 0.00 0.00 56 1020.8